Location: Luxembourg
(49.6117°N, 6.1300°E)
Time: 12:17:17
(UTC+01:00)

Envisat - Visible Passes

Search period start: 24 January 2019 00:00
Search period end: 03 February 2019 00:00
Orbit: 764 x 766 km, 98.2° (Epoch: 24 January)

Date Brightness Start Highest point End Pass type
(mag) Time Alt. Az. Time Alt. Az. Time Alt. Az.
24 Jan 5.9 06:58:42 10° NE 07:02:00 17° E 07:05:16 10° SE visible
24 Jan 3.6 18:17:03 10° SE 18:21:37 35° ENE 18:26:12 10° N visible
24 Jan 4.4 19:55:55 10° SSW 20:00:36 37° W 20:05:21 10° NNW visible
25 Jan 3.1 19:18:38 10° S 19:23:43 76° WSW 19:28:50 10° NNW visible
25 Jan 6.1 21:02:03 10° WSW 21:03:37 11° W 21:05:12 10° WNW visible
26 Jan 5.4 07:23:30 10° NE 07:27:50 28° E 07:32:09 10° SSE visible
26 Jan 3.0 18:42:04 10° SE 18:47:01 55° ENE 18:51:59 10° N visible
26 Jan 5.3 20:22:22 10° SW 20:26:22 23° W 20:30:25 10° NW visible
27 Jan 6.1 06:48:05 10° NE 06:50:38 14° E 06:53:11 10° ESE visible
27 Jan 3.8 18:06:11 10° ESE 18:10:30 29° ENE 18:14:51 10° N visible
27 Jan 4.0 19:44:28 10° S 19:49:20 46° W 19:54:15 10° NNW visible
28 Jan 2.9 19:07:25 10° SSE 19:12:30 88° E 19:17:38 10° NNW visible
28 Jan 5.9 20:49:34 10° WSW 20:52:15 14° W 20:54:56 10° NW visible
29 Jan 5.7 07:12:32 10° NE 07:16:32 23° E 07:20:29 10° SE visible
29 Jan 3.3 18:31:03 10° SE 18:35:52 45° ENE 18:40:42 10° N visible
29 Jan 4.9 20:10:43 10° SSW 20:15:04 28° W 20:19:27 10° NW visible
30 Jan 6.4 06:37:57 10° ENE 06:39:16 11° E 06:40:34 10° E visible
30 Jan 4.0 17:55:22 10° ESE 17:59:24 24° ENE 18:03:27 10° N visible
30 Jan 3.6 19:33:06 10° S 19:38:05 57° W 19:43:07 10° NNW visible
31 Jan 2.9 18:56:15 10° SSE 19:01:18 73° ENE 19:06:24 10° N visible
31 Jan 5.7 20:37:32 10° SW 20:40:53 18° W 20:44:16 10° NW visible
01 Feb 5.9 07:01:40 10° NE 07:05:12 18° E 07:08:41 10° SE visible
01 Feb 3.5 18:20:04 10° SE 18:24:43 37° ENE 18:29:23 10° N visible
01 Feb 4.6 19:59:10 10° SSW 20:03:46 35° W 20:08:25 10° NNW visible
02 Feb 3.3 19:21:47 10° S 19:26:51 70° WSW 19:31:57 10° NNW visible
02 Feb 6.2 21:06:09 10° W 21:06:49 10° W 21:07:30 10° WNW visible
